Huron, SD

11:49 PM CDT on August 25, 2016 (GMT -0500)
Huron Regional

Weather History for KHON - March, 2013

Change the Weather History Date:

Saturday, March 30, 2013

  Actual Average Record
Temperature  
Mean Temperature 42 °F 39 °F  
Max Temperature 53 °F 51 °F 89 °F (1943)
Min Temperature 30 °F 28 °F -4 °F (1969)
Degree Days  
Heating Degree Days 23 26  
Month to date heating degree days 1203 962  
Since 1 July heating degree days 7029 6794  
Cooling Degree Days 0 0  
Month to date cooling degree days 0 0  
Year to date cooling degree days 0 0  
Moisture  
Dew Point 36 °F    
Average Humidity 83    
Maximum Humidity 100    
Minimum Humidity 66    
Precipitation  
Precipitation 0.00 in 0.07 in 0.62 in (1891)
Month to date precipitation 0.78 1.39  
Year to date precipitation 2.16 2.49  
Snow  
Snow 0.00 in 0.30 in 1.80 in (2009)
Month to date snowfall 7.2 8.7  
Since 1 July snowfall 40.4 39.7  
Snow Depth 0.00 in    
Sea Level Pressure  
Sea Level Pressure 29.99 in    
Wind  
Wind Speed 8 mph (NW)    
Max Wind Speed 17 mph    
Max Gust Speed 47 mph    
Visibility 5 miles    
Events Fog    
T = Trace of Precipitation, MM = Missing Value Source: NWS Daily Summary

Daily Weather History Graph

Daily Weather History Graph

Search for Another Location

Airport or City:

Trip Planner

Search our weather history database for the weather conditions in past years. The results will help you decide how hot, cold, wet, or windy it might be!

Date:

Astronomy

Mar. 30, 2013 Rise Set
Actual Time 7:17 AM CDT 7:58 PM CDT
Civil Twilight 6:47 AM CDT 8:27 PM CDT
Nautical Twilight 6:13 AM CDT 9:02 PM CDT
Astronomical Twilight 5:37 AM CDT 9:38 PM CDT
Moon No Moon Rise 9:04 AM CDT (3/30)
Length of Visible Light 13h 39m
Length of Day
12h 41m
Waning Gibbous, 86% of the Moon is Illuminated
Mar 30
Waning Gibbous
Apr 2
Last Quarter
Apr 10
New
Apr 18
First Quarter
Apr 25
Full

Hourly Weather History & Observations

Time (CDT) Temp. Windchill Dew Point Humidity Pressure Visibility Wind Dir Wind Speed Gust Speed Precip Events Conditions
12:55 AM 51.1 °F - 45.0 °F 80% 29.92 in 10.0 mi SSW 12.7 mph - N/A   Mostly Cloudy
1:55 AM 39.0 °F 34.0 °F 36.0 °F 89% 29.96 in 8.0 mi NNW 6.9 mph - N/A   Partly Cloudy
2:33 AM 35.6 °F 29.9 °F 33.8 °F 93% 29.94 in 6.0 mi NW 6.9 mph - N/A   Mostly Cloudy
2:48 AM 33.8 °F 28.6 °F 33.8 °F 100% 29.94 in 5.0 mi NW 5.8 mph - N/A   Scattered Clouds
2:55 AM 33.1 °F 27.7 °F 32.0 °F 96% 29.97 in 5.0 mi NW 5.8 mph - N/A   Partly Cloudy
3:10 AM 33.8 °F 27.7 °F 33.8 °F 100% 29.95 in 4.0 mi NW 6.9 mph - N/A   Mostly Cloudy
3:37 AM 33.8 °F 29.6 °F 32.0 °F 93% 29.95 in 4.0 mi WNW 4.6 mph - N/A   Mostly Cloudy
3:55 AM 33.1 °F 28.7 °F 32.0 °F 96% 29.96 in 4.0 mi West 4.6 mph - N/A   Mostly Cloudy
4:55 AM 33.1 °F 25.5 °F 32.0 °F 96% 29.98 in 5.0 mi NW 9.2 mph - N/A   Clear
5:55 AM 30.9 °F 24.3 °F 30.0 °F 96% 29.98 in 4.0 mi WNW 6.9 mph - N/A   Clear
6:55 AM 30.9 °F 24.3 °F 30.0 °F 96% 29.99 in 5.0 mi NNW 6.9 mph - N/A   Clear
7:55 AM 32.0 °F 24.8 °F 30.0 °F 92% 30.02 in 4.0 mi NNW 8.1 mph - N/A   Clear
8:55 AM 34.0 °F 27.2 °F 30.9 °F 89% 30.03 in 5.0 mi NNW 8.1 mph - N/A   Clear
9:55 AM 37.9 °F 31.5 °F 32.0 °F 79% 30.03 in 7.0 mi NW 9.2 mph - N/A   Clear
10:55 AM 43.0 °F 38.2 °F 35.1 °F 74% 30.01 in 8.0 mi NW 8.1 mph - N/A   Clear
11:55 AM 46.9 °F - 37.9 °F 71% 30.01 in 8.0 mi NW 10.4 mph - N/A   Clear
12:55 PM 50.0 °F - 41.0 °F 71% 30.01 in 9.0 mi NW 11.5 mph - N/A   Clear
1:55 PM 52.0 °F - 42.1 °F 69% 30.00 in 9.0 mi NW 13.8 mph - N/A   Partly Cloudy
2:55 PM 53.1 °F - 43.0 °F 69% 29.99 in 9.0 mi NNW 13.8 mph - N/A   Clear
3:55 PM 53.1 °F - 42.1 °F 66% 29.99 in 9.0 mi North 16.1 mph - N/A   Clear
4:55 PM 52.0 °F - 42.1 °F 69% 29.98 in 8.0 mi North 16.1 mph - N/A   Clear
5:55 PM 50.0 °F - 42.1 °F 74% 29.99 in 7.0 mi North 12.7 mph - N/A   Clear
6:55 PM 46.0 °F 41.9 °F 39.9 °F 79% 29.99 in 6.0 mi NNE 8.1 mph - N/A   Haze
7:55 PM 41.0 °F 38.0 °F 37.9 °F 89% 30.00 in 5.0 mi NNE 4.6 mph - N/A   Clear
8:55 PM 37.0 °F - 37.0 °F 100% 30.00 in 4.0 mi Calm Calm - N/A   Clear
9:20 PM 35.6 °F - 35.6 °F 100% 29.96 in 1.5 mi Calm Calm - N/A   Clear
9:55 PM 36.0 °F - 36.0 °F 100% 30.00 in 2.5 mi Calm Calm - N/A   Clear
10:35 PM 35.6 °F - 35.6 °F 100% 29.96 in 1.5 mi Calm Calm - N/A   Clear
10:49 PM 33.8 °F - 33.8 °F 100% 29.97 in 0.8 mi Calm Calm - N/A   Partly Cloudy
10:55 PM 32.0 °F - 32.0 °F 100% 30.01 in 0.2 mi Calm Calm - N/A Fog Fog
11:01 PM 33.8 °F - 33.8 °F 100% 29.98 in 0.5 mi Calm Calm - N/A Fog Fog
11:08 PM 33.8 °F 29.6 °F 33.8 °F 100% 29.98 in 1.0 mi NNW 4.6 mph - N/A   Mostly Cloudy
11:23 PM 32.0 °F 25.6 °F 32.0 °F 100% 30.00 in 0.2 mi NW 6.9 mph - N/A Fog Fog
11:33 PM 32.0 °F 25.6 °F 32.0 °F 100% 30.00 in 0.5 mi NW 6.9 mph - N/A Fog Fog
11:42 PM 32.0 °F 25.6 °F 32.0 °F 100% 30.00 in 0.2 mi NW 6.9 mph - N/A Fog Fog
11:55 PM 32.0 °F 25.6 °F 32.0 °F 100% 30.04 in 0.2 mi NNW 6.9 mph - N/A Fog Fog